Date,TemperatureHighF,TemperatureAvgF,TemperatureLowF,DewpointHighF,DewpointAvgF,DewpointLowF,HumidityHigh,HumidityAvg,HumidityLow,PressureMaxIn,PressureMinIn,WindSpeedMaxMPH,WindSpeedAvgMPH,GustSpeedMaxMPH,PrecipitationSumIn
2013-1-1,13.0,4.2,-1.0,6.0,-0.1,-5.0,86,82,71,0.00,40.00,21,10,39,0.00
2013-1-2,14.0,5.2,0.0,1.0,-4.2,-13.0,84,66,36,0.00,40.00,17,6,36,0.00
2013-1-3,29.0,15.5,6.0,-11.0,-16.3,-25.0,43,24,10,0.00,40.00,5,2,7,0.00
2013-1-4,28.0,20.9,16.0,4.0,-2.6,-8.0,57,37,22,0.00,40.00,11,5,19,0.00
2013-1-5,27.0,18.1,12.0,5.0,-1.4,-20.0,61,43,14,0.00,40.00,11,6,21,0.00
2013-1-6,26.0,21.7,16.0,12.0,-2.1,-12.0,55,35,20,0.00,40.00,15,8,25,0.00
2013-1-7,20.0,15.2,12.0,12.0,7.3,-3.0,88,72,41,0.00,40.00,15,9,34,0.00
2013-1-8,19.0,15.5,13.0,16.0,12.9,10.0,91,89,88,0.00,40.00,16,9,31,0.00
2013-1-9,30.0,23.2,18.0,22.0,16.0,9.0,92,75,45,0.00,40.00,25,10,37,0.00
2013-1-10,24.0,17.6,5.0,17.0,12.5,0.0,92,81,55,0.00,40.00,22,12,32,0.00
2013-1-11,6.0,-1.2,-10.0,1.0,-6.0,-15.0,84,79,76,0.00,40.00,24,8,35,0.00
2013-1-12,1.0,-6.3,-11.0,-7.0,-12.4,-16.0,78,74,63,0.00,40.00,15,5,24,0.00
2013-1-13,0.0,-8.0,-11.0,-9.0,-13.8,-16.0,83,75,64,0.00,40.00,9,2,14,0.00
2013-1-14,0.0,-9.0,-15.0,-10.0,-15.0,-20.0,81,75,61,0.00,40.00,12,6,27,0.00
2013-1-15,10.0,1.2,-9.0,7.0,-3.5,-14.0,87,80,75,0.00,40.00,13,6,41,0.00
2013-1-16,22.0,11.9,0.0,6.0,1.9,-4.0,87,66,41,0.00,40.00,39,14,63,0.00
2013-1-17,32.0,22.8,18.0,5.0,1.2,-6.0,54,39,29,0.00,40.00,14,6,26,0.00
2013-1-18,29.0,20.7,14.0,6.0,1.1,-3.0,55,42,34,0.00,40.00,14,8,31,0.00
2013-1-19,28.0,18.6,13.0,4.0,-0.6,-4.0,57,43,28,0.00,40.00,13,6,27,0.00
2013-1-20,28.0,19.4,14.0,5.0,0.7,-3.0,58,44,31,0.00,40.00,12,5,34,0.00
2013-1-21,25.0,19.2,16.0,7.0,4.5,2.0,66,52,40,0.00,40.00,10,6,26,0.00
2013-1-22,35.0,25.0,16.0,4.0,-4.5,-17.0,53,29,12,0.00,40.00,15,9,29,0.00
2013-1-23,34.0,29.6,25.0,1.0,-5.4,-17.0,30,22,12,0.00,40.00,18,9,32,0.00
2013-1-24,30.0,23.5,19.0,21.0,15.6,-1.0,94,76,26,0.00,40.00,19,11,40,0.00
2013-1-25,25.0,22.2,19.0,21.0,18.2,16.0,93,85,73,0.00,40.00,18,6,32,0.00
2013-1-26,30.0,25.9,23.0,27.0,23.3,19.0,94,90,80,0.00,40.00,11,4,25,0.00
2013-1-27,25.0,18.1,8.0,22.0,14.7,3.0,93,86,78,0.00,40.00,26,13,36,0.00
2013-1-28,11.0,5.4,1.0,4.0,0.8,-3.0,86,81,70,0.00,40.00,26,12,35,0.00
2013-1-29,11.0,5.0,3.0,5.0,0.4,-1.0,85,81,71,0.00,40.00,21,8,42,0.00
2013-1-30,17.0,12.0,4.0,15.0,9.4,1.0,91,89,85,0.00,40.00,30,19,52,0.00
2013-1-31,19.0,16.8,14.0,17.0,14.8,12.0,91,91,90,0.00,40.00,28,12,44,0.00
2013-2-1,22.0,17.9,15.0,20.0,15.9,13.0,92,91,90,0.00,40.00,27,13,49,0.00
2013-2-2,25.0,17.9,13.0,23.0,15.5,10.0,93,90,88,0.00,40.00,13,8,26,0.00
2013-2-3,26.0,18.3,13.0,20.0,14.3,9.0,89,84,76,0.00,40.00,17,8,27,0.00
2013-2-4,22.0,16.1,12.0,16.0,12.7,9.0,90,86,79,0.00,40.00,17,11,35,0.00
2013-2-5,30.0,22.5,18.0,19.0,13.1,6.0,89,68,47,0.00,40.00,15,9,32,0.00
2013-2-6,24.0,16.8,9.0,14.0,10.5,4.0,89,77,54,0.00,40.00,20,10,44,0.00
2013-2-7,22.0,14.7,6.0,6.0,0.1,-6.0,90,55,35,0.00,40.00,17,8,24,0.00
2013-2-8,25.0,17.7,14.0,16.0,5.8,-4.0,92,61,40,0.00,40.00,22,12,27,0.00
2013-2-9,22.0,14.3,11.0,11.0,7.7,4.0,88,75,52,0.00,40.00,20,12,35,0.00
2013-2-10,14.0,8.1,2.0,8.0,-3.7,-18.0,87,60,33,0.00,40.00,18,8,30,0.00
2013-2-11,9.0,3.4,-1.0,0.0,-14.0,-99.9,82,52,28,0.00,40.00,22,8,32,0.00
2013-2-12,13.0,7.8,2.0,8.0,3.9,-2.0,87,84,79,0.00,40.00,14,6,32,0.00
2013-2-13,20.0,14.2,10.0,17.0,11.5,7.0,90,89,87,0.00,40.00,24,13,40,0.00
2013-2-14,18.0,13.1,10.0,16.0,10.3,7.0,90,88,87,0.00,40.00,25,14,42,0.00
2013-2-15,25.0,14.6,10.0,22.0,11.8,7.0,90,89,87,0.00,40.00,28,11,47,0.00
2013-2-16,28.0,19.6,14.0,25.0,16.8,11.0,90,89,84,0.00,40.00,13,7,27,0.00
2013-2-17,20.0,13.9,7.0,16.0,10.5,4.0,90,86,80,0.00,40.00,26,14,55,0.00
2013-2-18,20.0,9.2,5.0,16.0,5.9,2.0,88,86,82,0.00,40.00,17,7,24,0.00
2013-2-19,23.0,14.4,8.0,14.0,9.2,4.0,86,80,66,0.00,40.00,21,12,26,0.00
2013-2-20,28.0,17.7,13.0,15.0,8.3,1.0,85,68,42,0.00,40.00,18,9,26,0.00
2013-2-21,17.0,9.8,4.0,10.0,4.7,-1.0,91,80,64,0.00,40.00,24,9,36,0.00
2013-2-22,13.0,8.0,5.0,9.0,4.0,1.0,88,83,74,0.00,40.00,14,8,29,0.00
2013-2-23,22.0,11.2,5.0,16.0,7.4,-1.0,88,84,75,0.00,40.00,16,8,34,0.00
2013-2-24,18.0,7.9,3.0,8.0,0.6,-5.0,81,72,57,0.00,40.00,31,10,38,0.00
2013-2-25,16.0,8.4,2.0,7.0,1.9,-5.0,87,75,54,0.00,40.00,20,8,30,0.00
2013-2-26,15.0,6.5,3.0,7.0,1.1,-3.0,85,78,67,0.00,40.00,25,8,33,0.00
2013-2-27,14.0,6.6,2.0,5.0,1.2,-3.0,85,79,66,0.00,40.00,15,8,28,0.00
2013-2-28,17.0,11.5,6.0,13.0,7.2,2.0,90,83,71,0.00,40.00,17,7,28,0.00
2013-3-1,30.0,20.6,13.0,23.0,17.7,10.0,93,89,74,0.00,40.00,15,5,30,0.00
2013-3-2,39.0,27.5,21.0,25.0,19.9,10.0,93,75,47,0.00,40.00,14,7,32,0.00
2013-3-3,26.0,21.7,8.0,23.0,18.2,3.0,93,86,76,0.00,40.00,28,16,50,0.00
2013-3-4,14.0,6.4,2.0,3.0,-0.6,-11.0,85,73,52,0.00,40.00,20,8,31,0.00
2013-3-5,28.0,14.2,2.0,9.0,-0.8,-9.0,73,52,35,0.00,40.00,16,6,27,0.00
2013-3-6,29.0,21.9,14.0,21.0,12.1,3.0,92,67,45,0.00,40.00,31,15,99,0.00
2013-3-7,26.0,17.4,10.0,17.0,9.2,2.0,92,71,38,0.00,40.00,17,9,31,0.00
2013-3-8,31.0,22.4,19.0,23.0,18.0,13.0,93,83,67,0.00,40.00,18,9,23,0.00
2013-3-9,28.0,20.3,15.0,14.0,8.5,-2.0,81,61,35,0.00,40.00,14,9,29,0.00
2013-3-10,29.0,19.8,13.0,12.0,4.4,-4.0,77,51,38,0.00,40.00,18,8,32,0.00
2013-3-11,24.0,18.6,16.0,18.0,10.1,2.0,90,70,53,0.00,40.00,30,15,46,0.00
2013-3-12,31.0,20.4,13.0,23.0,11.2,-1.0,94,68,53,0.00,40.00,17,7,42,0.00
2013-3-13,40.0,30.6,24.0,25.0,21.9,18.0,93,72,51,0.00,40.00,17,8,42,0.00
2013-3-14,46.0,35.7,30.0,21.0,17.7,10.0,65,49,34,0.00,40.00,13,5,29,0.00
2013-3-15,38.0,33.6,28.0,21.0,16.7,12.0,70,50,40,0.00,40.00,23,15,44,0.00
2013-3-16,34.0,26.7,23.0,20.0,15.2,9.0,85,62,44,0.00,40.00,18,10,36,0.00
2013-3-17,25.0,12.6,7.0,20.0,7.8,0.0,93,81,60,0.00,40.00,38,19,66,0.00
2013-3-18,15.0,9.9,4.0,11.0,5.2,-1.0,87,81,70,0.00,40.00,17,9,45,0.00
2013-3-19,26.0,14.5,6.0,6.0,-1.9,-11.0,83,52,20,0.00,40.00,27,9,39,0.00
2013-3-20,30.0,22.2,15.0,24.0,11.2,-12.0,90,67,24,0.00,40.00,18,11,36,0.00
2013-3-21,26.0,15.7,7.0,24.0,12.6,3.0,94,87,82,0.00,40.00,24,12,57,0.00
2013-3-22,14.0,6.8,2.0,8.0,2.3,-4.0,86,81,74,0.00,40.00,11,4,23,0.00
2013-3-23,13.0,4.6,0.0,5.0,-2.5,-7.0,80,72,56,0.00,40.00,18,6,32,0.00
2013-3-24,15.0,4.6,-1.0,4.0,-3.6,-9.0,82,69,39,0.00,40.00,16,5,23,0.00
2013-3-25,23.0,11.1,2.0,5.0,-2.9,-9.0,70,53,35,0.00,40.00,11,4,17,0.00
2013-3-26,32.0,20.1,12.0,23.0,14.4,2.0,93,78,63,0.00,40.00,12,4,21,0.00
2013-3-27,34.0,24.8,20.0,23.0,19.3,15.0,94,80,59,0.00,40.00,11,5,22,0.00
2013-3-28,42.0,30.8,23.0,23.0,19.6,15.0,79,63,46,0.00,40.00,10,5,18,0.00
2013-3-29,37.0,30.7,28.0,27.0,24.0,20.0,95,77,57,0.00,40.00,16,9,62,0.00
2013-3-30,37.0,29.3,25.0,26.0,18.8,-99.9,94,70,38,0.00,40.00,18,9,32,0.00
2013-3-31,43.0,33.0,25.0,20.0,16.5,11.0,74,52,33,0.00,40.00,15,7,22,0.00
2013-4-1,46.0,34.9,28.0,20.0,15.5,13.0,60,45,31,0.00,40.00,13,5,19,0.00
2013-4-2,47.0,34.6,27.0,19.0,14.4,4.0,65,45,24,0.00,40.00,21,8,29,0.00
2013-4-3,43.0,34.8,29.0,26.0,20.2,8.0,81,56,33,0.00,40.00,26,10,36,0.00
2013-4-4,46.0,36.4,30.0,27.0,23.7,21.0,81,61,39,0.00,40.00,26,7,35,0.00
2013-4-5,35.0,28.8,24.0,29.0,25.3,19.0,96,87,67,0.00,40.00,27,14,60,0.00
2013-4-6,32.0,25.9,22.0,26.0,21.0,16.0,92,82,74,0.00,40.00,24,11,68,0.00
2013-4-7,31.0,24.8,21.0,22.0,20.1,16.0,92,82,67,0.00,40.00,23,12,54,0.00
2013-4-8,25.0,20.3,11.0,22.0,17.4,5.0,94,89,78,0.00,40.00,16,8,50,0.00
2013-4-9,25.0,13.8,7.0,7.0,3.8,0.0,86,65,44,0.00,40.00,24,11,48,0.00
2013-4-10,31.0,20.2,10.0,24.0,10.1,-7.0,93,65,42,0.00,40.00,25,8,38,0.00
2013-4-11,35.0,27.1,22.0,25.0,20.2,16.0,95,77,49,0.00,40.00,22,8,35,0.00
2013-4-12,37.0,25.5,15.0,22.0,13.1,3.0,94,64,25,0.00,40.00,14,6,29,0.00
2013-4-13,29.0,22.6,9.0,24.0,16.5,6.0,92,79,54,0.00,40.00,32,17,63,0.00
2013-4-14,24.0,12.3,6.0,18.0,7.7,3.0,87,82,67,0.00,40.00,25,11,41,0.00
2013-4-15,22.0,13.8,9.0,15.0,9.7,4.0,89,84,60,0.00,40.00,16,10,28,0.00
2013-4-16,16.0,10.5,7.0,9.0,5.0,0.0,87,78,65,0.00,40.00,19,9,29,0.00
2013-4-17,21.0,10.5,4.0,7.0,2.0,-4.0,80,69,47,0.00,40.00,18,9,26,0.00
2013-4-18,26.0,13.5,3.0,8.0,0.8,-8.0,69,57,44,0.00,40.00,21,9,35,0.00
2013-4-19,18.0,17.2,17.0,13.0,10.2,6.0,84,74,62,0.00,40.00,12,8,26,0.00
2013-4-20,31.0,26.5,24.0,26.0,23.7,21.0,94,89,80,0.00,40.00,19,10,56,0.00
2013-4-21,34.0,25.5,20.0,23.0,19.2,16.0,93,77,58,0.00,40.00,23,11,47,0.00
2013-4-22,25.0,18.9,7.0,19.0,14.2,3.0,93,82,70,0.00,40.00,18,7,32,0.00
2013-4-23,29.0,13.5,2.0,11.0,2.9,-4.0,82,64,38,0.00,40.00,23,7,29,0.00
2013-4-24,35.0,22.1,11.0,13.0,7.1,0.0,80,54,33,0.00,40.00,23,8,29,0.00
2013-4-25,43.0,30.7,22.0,13.0,7.4,2.0,49,38,23,0.00,40.00,19,9,36,0.00
2013-4-26,46.0,35.6,27.0,17.0,11.5,7.0,46,37,26,0.00,40.00,12,7,26,0.00
2013-4-27,49.0,39.6,32.0,20.0,17.6,11.0,56,42,27,0.00,40.00,22,10,41,0.00
2013-4-28,42.0,36.5,32.0,28.0,17.8,13.0,80,47,36,0.00,40.00,25,12,48,0.00
2013-4-29,35.0,31.5,28.0,24.0,16.7,8.0,71,54,40,0.00,40.00,24,14,52,0.00
2013-4-30,29.0,22.4,17.0,15.0,11.5,7.0,90,64,41,0.00,40.00,21,10,37,0.00
2013-5-1,30.0,18.6,13.0,17.0,11.1,-2.0,90,74,43,0.00,40.00,14,5,24,0.00
2013-5-2,40.0,22.0,14.0,17.0,5.6,-2.0,63,49,36,0.00,40.00,13,5,22,0.00
2013-5-3,47.0,34.5,28.0,17.0,10.5,1.0,54,37,25,0.00,40.00,13,5,23,0.00
2013-5-4,36.0,29.6,26.0,28.0,24.2,17.0,96,81,56,0.00,40.00,15,10,25,0.00
2013-5-5,45.0,33.0,26.0,30.0,26.0,23.0,96,77,46,0.00,40.00,21,12,32,0.00
2013-5-6,51.0,38.8,31.0,30.0,24.2,18.0,88,58,27,0.00,40.00,23,10,33,0.00
2013-5-7,52.0,39.8,34.0,29.0,25.1,20.0,76,57,29,0.00,40.00,19,7,31,0.00
2013-5-8,50.0,40.4,33.0,28.0,24.8,20.0,76,55,31,0.00,40.00,21,9,31,0.00
2013-5-9,53.0,42.3,35.0,29.0,23.1,18.0,63,48,25,0.00,40.00,19,6,31,0.00
2013-5-10,54.0,43.3,37.0,28.0,18.3,-99.9,58,40,20,0.00,40.00,12,6,19,0.00
2013-5-11,52.0,44.4,37.0,28.0,22.2,-99.9,56,43,28,0.00,40.00,13,5,26,0.00
2013-5-12,59.0,49.8,42.0,28.0,25.7,24.0,49,39,27,0.00,40.00,13,6,30,0.00
2013-5-13,62.0,52.4,46.0,31.0,26.3,24.0,45,37,24,0.00,40.00,15,9,33,0.00
2013-5-14,58.0,50.4,45.0,26.0,21.1,16.0,42,32,25,0.00,40.00,17,10,39,0.00
2013-5-15,58.0,48.2,41.0,31.0,24.0,17.0,66,39,28,0.00,40.00,18,7,44,0.00
2013-5-16,46.0,36.8,34.0,36.0,16.2,-99.9,94,76,59,0.00,40.00,22,8,33,0.00
2013-5-17,39.0,34.5,32.0,35.0,28.5,-99.9,96,90,73,0.00,40.00,27,8,37,0.00
2013-5-18,36.0,32.7,29.0,32.0,30.3,28.0,97,91,82,0.00,40.00,14,6,26,0.00
2013-5-19,34.0,31.2,29.0,32.0,29.4,27.0,96,93,88,0.00,40.00,11,6,22,0.00
2013-5-20,45.0,34.5,29.0,33.0,28.9,26.0,94,81,58,0.00,40.00,16,7,22,0.00
2013-5-21,50.0,39.4,32.0,33.0,27.4,24.0,85,63,40,0.00,40.00,19,6,24,0.00
2013-5-22,52.0,42.1,35.0,31.0,28.1,25.0,77,58,38,0.00,40.00,22,13,64,0.00
2013-5-23,50.0,39.1,29.0,33.0,25.9,16.0,89,62,32,0.00,40.00,31,13,53,0.00
2013-5-24,47.0,35.1,25.0,23.0,11.7,4.0,89,41,21,0.00,40.00,31,12,45,0.00
2013-5-25,53.0,43.1,35.0,27.0,12.7,0.0,51,30,19,0.00,40.00,18,12,30,0.00
2013-5-26,53.0,43.9,33.0,30.0,22.2,19.0,89,43,27,0.00,40.00,30,7,46,0.00
2013-5-27,46.0,36.9,31.0,31.0,26.0,22.0,90,66,42,0.00,40.00,19,8,30,0.00
2013-5-28,37.0,33.2,30.0,33.0,30.0,27.0,96,88,74,0.00,40.00,17,8,26,0.00
2013-5-29,37.0,32.3,30.0,32.0,29.7,26.0,97,91,73,0.00,40.00,22,12,56,0.00
2013-5-30,35.0,29.5,27.0,30.0,27.1,25.0,96,91,72,0.00,40.00,23,10,39,0.00
2013-5-31,39.0,31.6,25.0,27.0,22.6,17.0,96,71,49,0.00,40.00,25,10,39,0.00
2013-6-1,54.0,40.8,29.0,29.0,22.3,13.0,68,48,29,0.00,40.00,11,3,18,0.00
2013-6-2,60.0,47.9,39.0,30.0,22.9,17.0,55,38,24,0.00,40.00,32,10,51,0.00
2013-6-3,45.0,37.1,29.0,32.0,23.0,18.0,88,58,36,0.00,40.00,32,11,51,0.00
2013-6-4,47.0,39.4,33.0,29.0,23.2,19.0,75,53,32,0.00,40.00,12,5,24,0.00
2013-6-5,55.0,43.1,33.0,31.0,26.0,22.0,67,52,34,0.00,40.00,22,6,32,0.00
2013-6-6,58.0,50.1,44.0,34.0,27.7,20.0,52,42,29,0.00,40.00,10,5,18,0.00
2013-6-7,63.0,53.2,45.0,37.0,30.5,27.0,52,42,26,0.00,40.00,18,6,39,0.00
2013-6-8,59.0,50.1,41.0,32.0,27.5,22.0,60,43,28,0.00,40.00,19,8,39,0.00
2013-6-9,68.0,55.8,45.0,36.0,28.2,22.0,47,35,27,0.00,40.00,20,10,47,0.00
2013-6-10,71.0,61.5,56.0,35.0,26.9,5.0,36,28,11,0.00,40.00,22,11,34,0.00
2013-6-11,61.0,55.4,49.0,34.0,24.1,10.0,54,32,15,0.00,40.00,22,12,41,0.00
2013-6-12,50.0,46.3,41.0,38.0,33.3,28.0,84,61,44,0.00,40.00,21,11,37,0.00
2013-6-13,63.0,48.0,31.0,39.0,31.7,26.0,97,55,29,0.00,40.00,35,14,60,0.00
2013-6-14,47.0,37.2,29.0,30.0,20.4,15.0,94,52,32,0.00,40.00,23,8,34,0.00
2013-6-15,60.0,45.1,32.0,22.0,16.9,9.0,55,34,17,0.00,40.00,12,5,22,0.00
2013-6-16,63.0,52.9,46.0,25.0,18.7,10.0,37,26,15,0.00,40.00,30,7,49,0.00
2013-6-17,66.0,55.1,45.0,30.0,23.3,13.0,43,30,17,0.00,40.00,13,8,24,0.00
2013-6-18,68.0,57.0,49.0,32.0,24.1,16.0,37,28,18,0.00,40.00,20,9,30,0.00
2013-6-19,60.0,47.9,30.0,31.0,25.9,19.0,83,45,20,0.00,40.00,25,14,42,0.00
2013-6-20,50.0,33.6,27.0,21.0,17.4,12.0,75,54,25,0.00,40.00,16,9,40,0.00
2013-6-22,49.0,42.5,37.0,27.0,24.2,22.0,58,48,41,0.00,40.00,14,8,30,0.00
2013-6-23,63.0,47.6,35.0,28.0,22.4,18.0,60,39,19,0.00,40.00,12,6,19,0.00
2013-6-24,63.0,52.3,40.0,38.0,26.3,17.0,87,39,24,0.00,40.00,23,11,34,0.00
2013-6-25,55.0,44.4,38.0,41.0,36.3,33.0,94,75,46,0.00,40.00,19,9,39,0.00
2013-6-26,63.0,51.8,45.0,41.0,38.1,34.0,76,61,37,0.00,40.00,14,9,35,0.00
2013-6-27,73.0,60.8,52.0,43.0,36.3,32.0,61,42,25,0.00,40.00,12,5,29,0.00
2013-6-28,76.0,65.8,58.0,41.0,30.9,17.0,40,28,16,0.00,40.00,8,5,20,0.00
2013-6-29,76.0,63.4,54.0,42.0,33.6,21.0,59,34,18,0.00,40.00,25,7,47,0.00
2013-6-30,75.0,62.4,51.0,48.0,38.3,26.0,70,44,17,0.00,40.00,15,7,24,0.00
2013-7-1,78.0,64.1,56.0,46.0,39.4,33.0,56,41,25,0.00,40.00,16,6,28,0.00
2013-7-2,78.0,64.3,54.0,44.0,35.4,27.0,60,36,17,0.00,40.00,24,7,39,0.00
2013-7-3,74.0,65.3,58.0,46.0,39.4,35.0,51,39,30,0.00,40.00,24,9,33,0.00
2013-7-4,71.0,61.7,53.0,48.0,42.6,39.0,66,50,36,0.00,40.00,18,8,27,0.00
2013-7-5,66.0,56.9,48.0,47.0,40.1,33.0,77,54,38,0.00,40.00,19,8,40,0.00
2013-7-6,64.0,50.9,44.0,44.0,37.2,33.0,81,60,46,0.00,40.00,22,8,59,0.00
2013-7-7,68.0,54.0,43.0,48.0,38.8,30.0,84,58,32,0.00,40.00,29,11,58,0.00
2013-7-8,68.0,55.3,48.0,48.0,37.7,27.0,66,53,30,0.00,40.00,20,7,35,0.00
2013-7-9,72.0,61.4,52.0,36.0,27.0,21.0,37,28,16,0.00,40.00,19,7,34,0.00
2013-7-10,74.0,63.3,57.0,36.0,25.1,-99.9,31,24,18,0.00,40.00,11,5,14,0.00
2013-7-11,66.0,58.9,45.0,43.0,28.6,11.0,90,37,13,0.00,40.00,24,12,43,0.00
2013-7-12,64.0,52.4,45.0,44.0,36.7,29.0,90,58,33,0.00,40.00,13,6,23,0.00
2013-7-13,61.0,53.0,45.0,47.0,39.1,28.0,89,61,37,0.00,40.00,29,10,51,0.00
2013-7-14,69.0,57.6,49.0,42.0,34.2,27.0,62,42,28,0.00,40.00,15,6,27,0.00
2013-7-15,73.0,60.9,54.0,34.0,29.8,24.0,42,31,19,0.00,40.00,13,5,22,0.00
2013-7-16,65.0,60.1,51.0,47.0,38.1,26.0,86,46,26,0.00,40.00,16,7,24,0.00
2013-7-17,73.0,59.9,53.0,51.0,44.9,34.0,77,59,36,0.00,40.00,20,6,32,0.00
2013-7-18,74.0,63.5,55.0,47.0,36.3,28.0,66,39,20,0.00,40.00,13,6,27,0.00
2013-7-19,75.0,64.6,57.0,38.0,27.0,19.0,38,25,13,0.00,40.00,12,5,27,0.00
2013-7-20,73.0,63.2,57.0,39.0,24.2,-99.9,37,24,14,0.00,40.00,14,5,31,0.00
2013-7-21,73.0,63.5,56.0,36.0,23.0,9.0,34,22,12,0.00,40.00,13,6,25,0.00
2013-7-22,75.0,64.9,57.0,28.0,12.8,4.0,25,14,7,0.00,40.00,14,7,28,0.00
2013-7-23,73.0,63.1,56.0,31.0,15.4,5.0,28,16,9,0.00,40.00,15,7,28,0.00
2013-7-24,72.0,62.3,55.0,34.0,23.1,14.0,35,23,14,0.00,40.00,23,7,42,0.00
2013-7-25,72.0,62.8,56.0,34.0,23.8,12.0,32,23,14,0.00,40.00,12,5,23,0.00
2013-7-26,72.0,60.9,51.0,41.0,31.9,22.0,52,35,21,0.00,40.00,11,5,21,0.00
2013-7-27,61.0,54.1,47.0,44.0,35.5,26.0,87,53,26,0.00,40.00,17,6,39,0.00
2013-7-28,61.0,50.5,45.0,45.0,38.8,29.0,84,65,32,0.00,40.00,22,5,52,0.00
2013-7-29,59.0,51.0,45.0,43.0,34.9,-99.9,85,57,40,0.00,40.00,19,7,39,0.00
2013-7-30,65.0,53.4,44.0,45.0,37.6,27.0,85,58,30,0.00,40.00,18,7,33,0.00
2013-7-31,67.0,56.1,51.0,41.0,34.9,30.0,60,45,34,0.00,40.00,21,7,65,0.00
2013-8-1,72.0,60.4,49.0,39.0,32.5,24.0,67,38,18,0.00,40.00,23,11,38,0.00
2013-8-2,58.0,53.4,49.0,27.0,20.6,16.0,31,28,24,0.00,40.00,25,21,39,0.00
2013-9-8,52.0,48.4,41.0,44.0,38.9,33.0,91,70,51,0.00,40.00,27,7,43,0.00
2013-9-9,55.0,48.0,42.0,40.0,36.7,32.0,84,66,45,0.00,40.00,11,7,20,0.00
2013-9-10,61.0,52.4,44.0,39.0,35.5,30.0,78,55,32,0.00,40.00,12,8,19,0.00
2013-9-11,59.0,49.3,46.0,42.0,37.0,33.0,80,64,43,0.00,40.00,26,12,34,0.00
2013-9-12,52.0,47.2,43.0,41.0,39.0,37.0,84,73,64,0.00,40.00,21,11,33,0.00
2013-9-13,60.0,49.8,44.0,44.0,38.5,35.0,76,65,51,0.00,40.00,17,6,26,0.00
2013-9-14,54.0,47.0,44.0,44.0,36.4,-99.9,87,70,55,0.00,40.00,18,6,27,0.00
2013-9-15,52.0,46.7,45.0,44.0,40.9,39.0,88,80,66,0.00,40.00,19,10,28,0.00
2013-9-16,44.0,43.3,43.0,42.0,41.2,41.0,92,91,90,0.00,40.00,10,7,13,0.00
2013-9-17,53.0,53.0,53.0,37.0,37.0,37.0,55,55,55,0.00,40.00,9,9,12,0.00
2013-9-24,52.0,45.5,35.0,30.0,23.2,16.0,81,43,26,0.00,40.00,23,16,87,0.00
2013-9-25,38.0,29.8,22.0,31.0,26.8,18.0,96,89,69,0.00,40.00,15,7,48,0.00
2013-9-26,30.0,25.8,22.0,27.0,22.9,18.0,94,88,80,0.00,40.00,9,4,16,0.00
2013-9-27,30.0,24.5,22.0,24.0,21.5,19.0,93,88,76,0.00,40.00,17,9,30,0.00
2013-9-28,36.0,26.9,23.0,28.0,20.7,-99.9,94,84,71,0.00,40.00,13,8,30,0.00
2013-9-29,37.0,34.4,32.0,30.0,24.9,21.0,87,68,58,0.00,40.00,17,13,41,0.00
2013-9-30,40.0,35.9,33.0,34.0,30.9,26.0,92,82,71,0.00,40.00,27,17,58,0.00
2013-10-1,38.0,35.6,34.0,30.0,28.2,26.0,75,74,73,0.00,40.00,15,14,25,0.00
2013-10-2,40.0,33.5,28.0,28.0,25.7,22.0,95,74,52,0.00,40.00,15,9,31,0.00
2013-10-3,29.0,24.1,18.0,28.0,20.5,15.0,96,86,61,0.00,40.00,23,9,35,0.00
2013-10-4,25.0,20.0,17.0,20.0,15.4,5.0,90,83,51,0.00,40.00,28,8,41,0.00
2013-10-5,33.0,26.8,17.0,19.0,12.2,0.0,70,54,41,0.00,40.00,13,6,26,0.00
2013-10-6,46.0,37.7,27.0,28.0,19.6,14.0,69,49,34,0.00,40.00,11,5,20,0.00
2013-10-7,51.0,44.5,39.0,24.0,13.5,-1.0,36,28,16,0.00,40.00,14,6,22,0.00
2013-10-8,41.0,35.7,28.0,22.0,15.3,8.0,62,44,26,0.00,40.00,21,10,29,0.00
2013-10-9,41.0,33.8,28.0,27.0,20.9,14.0,70,59,46,0.00,40.00,20,10,26,0.00
2013-10-10,41.0,34.5,30.0,30.0,26.3,24.0,96,73,57,0.00,40.00,21,8,33,0.00
2013-10-11,30.0,26.6,23.0,29.0,23.3,16.0,96,87,75,0.00,40.00,14,6,21,0.00
2013-10-12,30.0,24.8,22.0,27.0,17.7,-99.9,93,80,60,0.00,40.00,11,7,15,0.00
2013-10-13,33.0,28.8,27.0,29.0,26.7,24.0,95,92,84,0.00,40.00,13,8,17,0.00
2013-10-14,28.0,23.9,19.0,26.0,21.1,14.0,95,88,80,0.00,40.00,17,7,26,0.00
2013-10-15,28.0,21.4,15.0,21.0,13.1,8.0,83,71,53,0.00,40.00,11,6,23,0.00
2013-10-16,30.0,23.9,19.0,21.0,16.0,11.0,83,72,64,0.00,40.00,17,8,29,0.00
2013-10-17,28.0,22.6,20.0,22.0,17.3,14.0,91,80,66,0.00,40.00,19,7,33,0.00
2013-10-18,30.0,21.4,14.0,16.0,11.9,6.0,89,67,45,0.00,40.00,13,6,22,0.00
2013-10-19,37.0,27.7,22.0,21.0,13.9,-99.9,83,62,49,0.00,40.00,16,8,34,0.00
2013-10-20,35.0,29.3,26.0,20.0,17.2,15.0,68,61,53,0.00,40.00,14,7,35,0.00
2013-10-21,40.0,32.5,25.0,22.0,19.5,16.0,74,59,45,0.00,40.00,14,6,26,0.00
2013-10-22,45.0,37.1,30.0,25.0,21.3,15.0,66,53,41,0.00,40.00,11,6,21,0.00
2013-10-23,46.0,39.2,34.0,25.0,20.0,14.0,52,46,36,0.00,40.00,11,5,15,0.00
2013-10-24,46.0,39.9,34.0,21.0,14.7,9.0,50,36,26,0.00,40.00,10,4,14,0.00
2013-10-25,48.0,40.8,36.0,21.0,13.7,7.0,38,33,25,0.00,40.00,9,5,18,0.00
2013-10-26,46.0,38.3,35.0,22.0,11.5,-99.9,46,37,34,0.00,40.00,11,5,24,0.00
2013-10-27,45.0,38.0,33.0,19.0,13.5,8.0,53,37,24,0.00,40.00,11,8,23,0.00
2013-10-28,37.0,27.4,23.0,27.0,20.6,-99.9,96,84,33,0.00,40.00,33,14,129,0.00
2013-10-29,28.0,23.0,21.0,26.0,21.0,19.0,94,93,91,0.00,40.00,8,4,20,0.00
2013-10-30,26.0,21.5,19.0,23.0,19.4,17.0,93,92,89,0.00,40.00,14,8,30,0.00
2013-10-31,25.0,22.0,19.0,23.0,20.0,17.0,94,92,88,0.00,40.00,27,10,49,0.00
2013-11-1,28.0,22.8,19.0,23.0,19.9,16.0,93,88,79,0.00,40.00,18,10,40,0.00
2013-11-2,32.0,26.6,29.0,21.0,4.6,-99.9,70,56,57,0.00,40.00,19,14,37,0.00
2013-11-3,30.0,15.1,9.0,24.0,11.1,5.0,95,84,68,0.00,40.00,21,10,37,0.00
2013-11-4,14.0,8.6,5.0,8.0,4.2,1.0,86,82,74,0.00,40.00,11,6,23,0.00
2013-11-5,14.0,10.2,5.0,11.0,5.8,1.0,89,83,71,0.00,40.00,12,6,26,0.00
2013-11-6,22.0,18.3,14.0,20.0,15.7,11.0,93,90,86,0.00,40.00,13,9,30,0.00
2013-11-7,30.0,26.1,22.0,26.0,23.5,20.0,94,90,84,0.00,40.00,15,8,35,0.00
2013-11-8,28.0,23.6,20.0,24.0,13.9,4.0,92,68,41,0.00,40.00,31,16,59,0.00
2013-11-9,36.0,26.5,21.0,21.0,12.6,-99.9,76,61,47,0.00,40.00,13,7,25,0.00
2013-11-10,39.0,33.0,28.0,21.0,18.8,16.0,75,56,44,0.00,40.00,17,12,27,0.00
2013-11-11,41.0,33.6,32.0,20.0,13.6,-99.9,60,47,41,0.00,40.00,8,6,24,0.00
2013-11-12,48.0,39.2,32.0,16.0,9.0,-99.9,47,33,21,0.00,40.00,11,6,19,0.00
2013-11-13,39.0,32.5,24.0,27.0,19.8,11.0,96,64,33,0.00,40.00,14,9,28,0.00
2013-11-14,29.0,24.2,21.0,23.0,16.9,5.0,94,75,45,0.00,40.00,13,7,24,0.00
2013-11-15,21.0,16.9,12.0,16.0,12.1,6.0,91,81,70,0.00,40.00,26,12,40,0.00
2013-11-16,17.0,13.7,9.0,13.0,6.8,-99.9,88,82,79,0.00,40.00,25,15,45,0.00
2013-11-17,19.0,12.7,7.0,17.0,10.0,4.0,91,88,86,0.00,40.00,14,10,41,0.00
2013-11-18,31.0,24.5,19.0,19.0,15.5,11.0,92,69,51,0.00,40.00,17,11,35,0.00
2013-11-19,30.0,25.2,23.0,24.0,21.5,14.0,93,87,55,0.00,40.00,14,9,32,0.00
2013-11-20,28.0,22.7,15.0,24.0,19.9,12.0,94,89,81,0.00,40.00,16,8,32,0.00
2013-11-21,16.0,10.9,8.0,13.0,-4.3,-20.0,92,53,25,0.00,40.00,22,10,34,0.00
2013-11-22,28.0,22.4,19.0,1.0,-1.4,-6.0,42,35,28,0.00,40.00,12,7,21,0.00
2013-11-23,30.0,25.9,24.0,-2.0,-7.5,-99.9,28,25,21,0.00,40.00,15,9,21,0.00
2013-11-24,39.0,32.1,28.0,10.0,6.3,-4.0,43,34,16,0.00,40.00,14,8,33,0.00
2013-11-25,32.0,26.7,23.0,14.0,10.0,5.0,59,49,39,0.00,40.00,19,8,38,0.00
2013-11-26,36.0,28.0,22.0,15.0,11.3,8.0,62,49,40,0.00,40.00,11,6,22,0.00
2013-11-27,40.0,32.3,28.0,13.0,9.1,4.0,45,38,29,0.00,40.00,11,6,19,0.00
2013-11-28,38.0,31.2,27.0,13.0,9.2,4.0,46,39,31,0.00,40.00,10,4,15,0.00
2013-11-29,32.0,28.1,23.0,18.0,12.3,7.0,80,52,38,0.00,40.00,17,8,26,0.00
2013-11-30,26.0,21.4,21.0,20.0,13.6,-99.9,93,81,67,0.00,40.00,23,10,35,0.00
2013-12-1,26.0,22.7,21.0,25.0,20.7,19.0,95,92,89,0.00,40.00,21,12,46,0.00
2013-12-2,26.0,23.3,19.0,25.0,21.1,15.0,95,90,86,0.00,40.00,30,20,63,0.00
2013-12-3,18.0,3.6,-3.0,15.0,-0.7,-7.0,89,82,76,0.00,40.00,16,7,29,0.00
2013-12-4,-1.0,-6.9,-11.0,-8.0,-12.8,-17.0,79,74,69,0.00,40.00,13,5,20,0.00
2013-12-5,-5.0,-11.0,-15.0,-13.0,-17.1,-20.0,78,74,67,0.00,40.00,10,4,17,0.00
2013-12-6,-5.0,-10.7,-15.0,-12.0,-16.5,-21.0,79,75,69,0.00,40.00,14,6,18,0.00
2013-12-7,2.0,-2.9,-10.0,-3.0,-8.7,-99.9,82,79,78,0.00,40.00,22,13,28,0.00
2013-12-8,-2.0,-8.7,-16.0,-6.0,-14.4,-22.0,81,76,68,0.00,40.00,20,10,31,0.00
2013-12-9,-1.0,-8.5,-18.0,-7.0,-14.1,-23.0,81,76,69,0.00,40.00,16,8,35,0.00
2013-12-10,4.0,0.3,-4.0,-2.0,-4.0,-9.0,84,81,75,0.00,40.00,23,11,45,0.00
2013-12-11,16.0,8.9,2.0,9.0,4.2,-2.0,85,81,73,0.00,40.00,12,8,30,0.00
2013-12-12,27.0,19.2,13.0,13.0,8.6,4.0,80,63,50,0.00,40.00,19,10,32,0.00
2013-12-13,16.0,13.5,11.0,11.0,7.6,4.0,88,77,60,0.00,40.00,24,10,39,0.00
2013-12-14,18.0,13.6,11.0,14.0,9.5,-99.9,90,87,81,0.00,40.00,15,7,34,0.00
2013-12-15,24.0,17.3,15.0,21.0,14.9,12.0,91,89,79,0.00,40.00,20,11,35,0.00
2013-12-17,35.0,31.9,29.0,10.0,6.7,2.0,39,34,28,0.00,40.00,17,13,35,0.00
2013-12-18,32.0,27.9,24.0,10.0,8.1,5.0,54,43,32,0.00,40.00,20,14,42,0.00
2013-12-19,24.0,17.1,7.0,19.0,11.8,-2.0,92,80,54,0.00,40.00,22,6,31,0.00
2013-12-20,10.0,5.0,3.0,3.0,-0.0,-3.0,85,79,71,0.00,40.00,22,10,32,0.00
2013-12-21,14.0,8.4,4.0,10.0,3.7,-99.9,88,84,81,0.00,40.00,19,9,40,0.00
2013-12-22,16.0,9.5,7.0,11.0,5.5,3.0,86,85,81,0.00,40.00,15,10,37,0.00
2013-12-23,24.0,21.3,18.0,22.0,19.3,16.0,92,91,89,0.00,40.00,24,14,50,0.00
2013-12-24,23.0,12.7,6.0,21.0,9.9,2.0,93,88,85,0.00,40.00,28,12,65,0.00
2013-12-25,22.0,12.7,6.0,18.0,6.4,1.0,85,76,53,0.00,40.00,11,6,25,0.00
2013-12-26,29.0,21.0,11.0,16.0,10.1,4.0,73,63,50,0.00,40.00,12,6,25,0.00
2013-12-27,36.0,28.5,24.0,14.0,10.2,1.0,58,46,31,0.00,40.00,13,8,30,0.00
2013-12-28,28.0,17.9,9.0,13.0,4.6,-99.9,85,61,33,0.00,40.00,17,8,30,0.00
2013-12-29,14.0,9.2,6.0,7.0,3.2,-2.0,89,77,64,0.00,40.00,20,8,37,0.00
2013-12-30,20.0,15.0,10.0,17.0,11.5,7.0,89,86,76,0.00,40.00,20,7,35,0.00
2013-12-31,22.0,18.0,16.0,20.0,15.8,13.0,92,90,86,0.00,40.00,24,12,50,0.00
2014-1-1,20.0,13.8,11.0,17.0,10.8,8.0,90,88,87,0.00,40.00,23,11,42,0.00
2014-1-2,21.0,16.6,12.0,18.0,13.4,9.0,91,86,79,0.00,40.00,16,8,25,0.00